Orbital Elements at Epoch 2459200.5 (2020-Dec-17.0) TDB
Reference: JPL 42 (heliocentric ecliptic J2000)
Element | Value | Uncertainty (1-sigma) | Units |
e | .05064350272393083 | 3.9049e-08 | |
a | 3.049052732875219 | 1.8457e-08 | au |
q | 2.894638022492444 | 1.2338e-07 | au |
i | 13.04506729745549 | 4.1329e-06 | deg |
node | 250.354064046974 | 1.8476e-05 | deg |
peri | 275.4046771601558 | 4.4677e-05 | deg |
M | 8.066221171790659 | 4.1526e-05 | deg |
tp | 2459156.927402005324 (2020-Nov-03.42740201) | 0.00022425 | TDB |
period | 1944.669622120107 5.32 | 1.7658e-05 4.834e-08 | d yr |
n | .1851214190344182 | 1.6809e-09 | deg/d |
Q | 3.203467443257994 | 1.9392e-08 | au |
|
| | Orbit Determination Parameters
Additional Information
|